Powrót do katalogu

STARLINK-38256

AktywnyŁącznośćSSO
NORAD 100318·PAYLOAD·🇺🇸 United States

Wystrzelony Aug 12, 2026 z Vandenberg Space Force Base

Loading…

Następne Przeloty (najbliższe 24 godziny)

TLE

ŚwieżeSource: Space-Track

Epoka: Sep 14, 2026, 15:17 UTC

1 A0318U 26184T   26257.63740803  .00007698  00000-0  24049-3 0  9998
2 A0318  97.2836 122.8681 0001902  87.2989 272.8471 15.33449476  6465

Śledź STARLINK-38256 w czasie rzeczywistym z AllMySat

Download on the App Store